• în Republica Moldova
  • Lista ţărilor
  • Pe 7 zile
  • Temperatura apei
  • Hartă satelitară
  • Meteo pe hartă
  • Widget-uri
  • user-avatar
    Intrare

    Meteo pe oră la Baydiki

    Astăzi, 22 Octombrie, Luni

    Timp Temperatura Precipitaţii Vânt Presiune Umiditate
    00:00 +4°C° 0 mm 1 m/s 749 mmHg 81%
    01:00 +3°C° 0 mm 1 m/s 749 mmHg 83%
    02:00 +3°C° 0 mm 1 m/s 749 mmHg 84%
    03:00 +2°C° 0 mm 0 m/s 749 mmHg 85%
    04:00 +2°C° 0 mm 0 m/s 749 mmHg 86%
    05:00 +1°C° 0 mm 0 m/s 749 mmHg 87%
    06:00 +1°C° 0 mm 0 m/s 748 mmHg 88%
    07:00 +2°C° 0 mm 0 m/s 748 mmHg 86%
    08:00 +3°C° 0 mm 1 m/s 748 mmHg 83%
    09:00 +4°C° 0 mm 1 m/s 748 mmHg 81%
    10:00 +5°C° 0 mm 1 m/s 748 mmHg 75%
    11:00 +5°C° 0 mm 2 m/s 748 mmHg 70%
    12:00 +7°C° 0 mm 2 m/s 747 mmHg 64%
    13:00 +7°C° 0 mm 2 m/s 747 mmHg 63%
    14:00 +7°C° 0 mm 3 m/s 746 mmHg 62%
    15:00 +8°C° 0 mm 3 m/s 745 mmHg 60%
    16:00 +7°C° 0 mm 3 m/s 745 mmHg 66%
    17:00 +5°C° 0 mm 2 m/s 744 mmHg 71%
    18:00 +4°C° 0 mm 2 m/s 744 mmHg 77%
    19:00 +4°C° 0 mm 2 m/s 743 mmHg 78%
    20:00 +3°C° 0 mm 3 m/s 743 mmHg 79%
    21:00 +2°C° 0 mm 3 m/s 742 mmHg 81%
    22:00 +2°C° 0 mm 3 m/s 742 mmHg 81%
    23:00 +2°C° 0 mm 3 m/s 741 mmHg 82%

    Mâine, 23 Octombrie, Marţi

    Timp Temperatura Precipitaţii Vânt Presiune Umiditate
    00:00 +2°C° 0 mm 3 m/s 741 mmHg 83%
    01:00 +1°C° 0 mm 3 m/s 740 mmHg 84%
    02:00 +1°C° 0 mm 3 m/s 739 mmHg 84%
    03:00 +1°C° 0 mm 3 m/s 739 mmHg 85%
    04:00 +1°C° 0 mm 3 m/s 738 mmHg 86%
    05:00 +1°C° 0 mm 3 m/s 737 mmHg 87%
    06:00 0°C° 0 mm 3 m/s 737 mmHg 88%
    07:00 +1°C° 0 mm 3 m/s 736 mmHg 87%
    08:00 0°C° 0 mm 4 m/s 736 mmHg 86%
    09:00 +1°C° 0 mm 4 m/s 736 mmHg 85%
    10:00 +3°C° 0 mm 4 m/s 735 mmHg 83%
    11:00 +3°C° 0 mm 4 m/s 735 mmHg 82%
    12:00 +4°C° 0 mm 3 m/s 735 mmHg 80%
    13:00 +4°C° 0.2 mm 3 m/s 734 mmHg 81%
    14:00 +4°C° 0.2 mm 3 m/s 734 mmHg 83%
    15:00 +4°C° 0.2 mm 3 m/s 734 mmHg 84%
    16:00 +5°C° 0.2 mm 2 m/s 733 mmHg 86%
    17:00 +4°C° 0.2 mm 2 m/s 733 mmHg 89%
    18:00 +4°C° 0.2 mm 2 m/s 732 mmHg 91%
    19:00 +5°C° 0.1 mm 1 m/s 732 mmHg 91%
    20:00 +5°C° 0.1 mm 1 m/s 732 mmHg 91%
    21:00 +5°C° 0.1 mm 1 m/s 731 mmHg 91%
    22:00 +5°C° 0 mm 1 m/s 730 mmHg 91%
    23:00 +5°C° 0 mm 1 m/s 730 mmHg 91%

    Poimâine, 24 Octombrie, Miercuri

    Timp Temperatura Precipitaţii Vânt Presiune Umiditate
    00:00 +4°C° 0 mm 2 m/s 729 mmHg 91%
    01:00 +4°C° 0.1 mm 2 m/s 729 mmHg 91%
    02:00 +4°C° 0.1 mm 2 m/s 728 mmHg 92%
    03:00 +3°C° 0.1 mm 2 m/s 727 mmHg 92%
    04:00 +3°C° 0 mm 2 m/s 727 mmHg 93%
    05:00 +3°C° 0 mm 2 m/s 726 mmHg 93%
    06:00 +2°C° 0 mm 3 m/s 725 mmHg 93%
    07:00 +2°C° 0 mm 3 m/s 725 mmHg 90%
    08:00 +3°C° 0 mm 3 m/s 725 mmHg 88%
    09:00 +3°C° 0 mm 4 m/s 724 mmHg 85%
    10:00 +4°C° 0 mm 4 m/s 724 mmHg 78%
    11:00 +5°C° 0 mm 5 m/s 723 mmHg 71%
    12:00 +6°C° 0 mm 5 m/s 723 mmHg 65%
    13:00 +5°C° 0.3 mm 5 m/s 722 mmHg 68%
    14:00 +5°C° 0.3 mm 5 m/s 722 mmHg 71%
    15:00 +5°C° 0.3 mm 5 m/s 721 mmHg 74%
    16:00 +5°C° 0.2 mm 5 m/s 721 mmHg 78%
    17:00 +5°C° 0.2 mm 4 m/s 721 mmHg 82%
    18:00 +5°C° 0.2 mm 4 m/s 721 mmHg 85%
    19:00 +5°C° 0.1 mm 4 m/s 721 mmHg 88%
    20:00 +5°C° 0.1 mm 4 m/s 721 mmHg 90%
    21:00 +5°C° 0.1 mm 3 m/s 721 mmHg 92%
    22:00 +4°C° 0 mm 3 m/s 721 mmHg 93%
    23:00 +4°C° 0 mm 3 m/s 720 mmHg 94%

    25 Octombrie, Joi

    Timp Temperatura Precipitaţii Vânt Presiune Umiditate
    00:00 +4°C° 0 mm 3 m/s 720 mmHg 96%
    01:00 +4°C° 0.1 mm 3 m/s 720 mmHg 96%
    02:00 +4°C° 0.1 mm 3 m/s 720 mmHg 95%
    03:00 +4°C° 0.1 mm 4 m/s 720 mmHg 95%
    04:00 +5°C° 0.4 mm 4 m/s 719 mmHg 95%
    05:00 +5°C° 0.4 mm 5 m/s 719 mmHg 94%
    06:00 +5°C° 0.4 mm 5 m/s 719 mmHg 93%
    07:00 +5°C° 0.5 mm 5 m/s 719 mmHg 93%
    08:00 +5°C° 0.5 mm 5 m/s 718 mmHg 93%
    09:00 +5°C° 0.5 mm 5 m/s 718 mmHg 92%
    10:00 +5°C° 1.9 mm 4 m/s 718 mmHg 93%
    11:00 +5°C° 1.9 mm 4 m/s 717 mmHg 93%
    12:00 +5°C° 1.9 mm 4 m/s 717 mmHg 94%
    13:00 +5°C° 2.1 mm 4 m/s 716 mmHg 92%
    14:00 +5°C° 2.1 mm 4 m/s 716 mmHg 91%
    15:00 +5°C° 2.1 mm 4 m/s 716 mmHg 90%
    16:00 +4°C° 1.2 mm 4 m/s 716 mmHg 89%
    17:00 +4°C° 1.2 mm 3 m/s 715 mmHg 88%
    18:00 +4°C° 1.2 mm 3 m/s 715 mmHg 88%
    19:00 +4°C° 1 mm 3 m/s 716 mmHg 88%
    20:00 +4°C° 1 mm 4 m/s 716 mmHg 88%
    21:00 +3°C° 1 mm 4 m/s 716 mmHg 88%
    22:00 +2°C° 0.7 mm 5 m/s 717 mmHg 87%
    23:00 +2°C° 0.7 mm 6 m/s 717 mmHg 86%

    26 Octombrie, Vineri

    Timp Temperatura Precipitaţii Vânt Presiune Umiditate
    00:00 +2°C° 0.7 mm 6 m/s 717 mmHg 85%
    01:00 0°C° 0.5 mm 7 m/s 718 mmHg 84%
    02:00 0°C° 0.5 mm 7 m/s 719 mmHg 83%
    03:00 0°C° 0.5 mm 8 m/s 720 mmHg 82%
    04:00 -1°C° 0.2 mm 7 m/s 721 mmHg 81%
    05:00 -1°C° 0.2 mm 7 m/s 722 mmHg 80%
    06:00 -2°C° 0.2 mm 7 m/s 723 mmHg 79%
    07:00 -2°C° 0 mm 7 m/s 724 mmHg 79%
    08:00 -2°C° 0 mm 7 m/s 725 mmHg 79%
    09:00 -2°C° 0 mm 7 m/s 726 mmHg 79%
    10:00 -2°C° 0 mm 7 m/s 727 mmHg 79%
    11:00 -1°C° 0 mm 7 m/s 728 mmHg 78%
    12:00 0°C° 0 mm 7 m/s 728 mmHg 78%
    13:00 +1°C° 0 mm 6 m/s 729 mmHg 77%
    14:00 +1°C° 0 mm 6 m/s 730 mmHg 75%
    15:00 +1°C° 0 mm 6 m/s 730 mmHg 74%
    16:00 +1°C° 0 mm 5 m/s 731 mmHg 76%
    17:00 +1°C° 0 mm 5 m/s 731 mmHg 77%
    18:00 +1°C° 0 mm 5 m/s 732 mmHg 79%
    19:00 +1°C° 0 mm 4 m/s 732 mmHg 80%
    20:00 +1°C° 0 mm 4 m/s 733 mmHg 81%
    21:00 +1°C° 0 mm 4 m/s 733 mmHg 81%
    22:00 0°C° 0 mm 4 m/s 734 mmHg 83%
    23:00 0°C° 0 mm 4 m/s 734 mmHg 86%

    27 Octombrie, Sâmbătă

    Timp Temperatura Precipitaţii Vânt Presiune Umiditate
    00:00 0°C° 0 mm 4 m/s 734 mmHg 88%
    01:00 0°C° 0 mm 4 m/s 735 mmHg 90%
    02:00 0°C° 0 mm 4 m/s 735 mmHg 92%
    03:00 -1°C° 0 mm 4 m/s 736 mmHg 95%
    04:00 0°C° 0 mm 3 m/s 736 mmHg 95%
    05:00 0°C° 0 mm 3 m/s 736 mmHg 95%
    06:00 0°C° 0 mm 3 m/s 736 mmHg 95%
    07:00 -1°C° 0 mm 4 m/s 736 mmHg 93%
    08:00 0°C° 0 mm 4 m/s 736 mmHg 91%
    09:00 0°C° 0 mm 5 m/s 736 mmHg 90%
    10:00 +2°C° 0.1 mm 5 m/s 736 mmHg 88%
    11:00 +3°C° 0.1 mm 6 m/s 736 mmHg 86%
    12:00 +4°C° 0.1 mm 7 m/s 736 mmHg 84%
    13:00 +5°C° 0.1 mm 7 m/s 735 mmHg 84%
    14:00 +5°C° 0.1 mm 7 m/s 735 mmHg 84%
    15:00 +5°C° 0.1 mm 7 m/s 735 mmHg 84%
    16:00 +5°C° 0.1 mm 6 m/s 735 mmHg 85%
    17:00 +5°C° 0.1 mm 6 m/s 735 mmHg 86%
    18:00 +5°C° 0.1 mm 6 m/s 735 mmHg 87%
    19:00 +5°C° 0 mm 6 m/s 735 mmHg 86%
    20:00 +6°C° 0 mm 5 m/s 735 mmHg 86%
    21:00 +6°C° 0 mm 5 m/s 735 mmHg 85%
    22:00 +6°C° 0 mm 5 m/s 735 mmHg 86%
    23:00 +5°C° 0 mm 5 m/s 735 mmHg 88%

    28 Octombrie, Duminică

    Timp Temperatura Precipitaţii Vânt Presiune Umiditate
    00:00 +5°C° 0 mm 4 m/s 735 mmHg 89%
    01:00 +5°C° 0 mm 4 m/s 735 mmHg 89%
    02:00 +5°C° 0 mm 4 m/s 735 mmHg 89%
    03:00 +5°C° 0 mm 4 m/s 736 mmHg 90%
    04:00 +5°C° 0.1 mm 4 m/s 735 mmHg 90%
    05:00 +5°C° 0.1 mm 4 m/s 735 mmHg 91%
    06:00 +5°C° 0.1 mm 4 m/s 735 mmHg 92%
    07:00 +6°C° 0.3 mm 5 m/s 735 mmHg 90%
    08:00 +6°C° 0.3 mm 5 m/s 735 mmHg 89%
    09:00 +7°C° 0.3 mm 6 m/s 735 mmHg 88%
    10:00 +8°C° 0.1 mm 6 m/s 735 mmHg 84%
    11:00 +9°C° 0.1 mm 6 m/s 735 mmHg 79%
    12:00 +11°C° 0.1 mm 7 m/s 735 mmHg 74%
    13:00 +11°C° 0.1 mm 6 m/s 735 mmHg 74%
    14:00 +11°C° 0.1 mm 6 m/s 735 mmHg 74%
    15:00 +11°C° 0.1 mm 6 m/s 735 mmHg 74%
    16:00 +11°C° 0.1 mm 6 m/s 735 mmHg 77%
    17:00 +11°C° 0.1 mm 6 m/s 735 mmHg 80%
    18:00 +10°C° 0.1 mm 6 m/s 736 mmHg 83%
    19:00 +10°C° 0.1 mm 6 m/s 736 mmHg 83%
    20:00 +10°C° 0.1 mm 6 m/s 736 mmHg 82%
    21:00 +10°C° 0.1 mm 6 m/s 736 mmHg 82%
    22:00 +10°C° 0 mm 5 m/s 737 mmHg 82%
    23:00 +10°C° 0 mm 5 m/s 737 mmHg 82%
    Arată mai mult